Location: Newark
(48.6676°N, 6.1917°E)
Time: 11:50:38
(UTC+00:00)

N. Korean satellite - Pass Details

Date: 10 December 2019
Orbit: 454 x 508 km, 97.2° (Epoch: 17 January)

Event Time Altitude Azimuth Distance (km) Brightness Sun altitude
Rises 06:33:07 0° 360° (N) 2,561 10.0 -7.0°
Reaches altitude 10° 06:35:34 10° 343° (NNW) 1,664 8.9 -6.6°
Maximum altitude 06:38:14 20° 295° (WNW) 1,157 7.9 -6.2°
Drops below altitude 10° 06:40:50 10° 247° (WSW) 1,631 8.9 -5.8°
Sets 06:43:13 0° 229° (SW) 2,492 10.0 -5.5°
